Weather History for Flint, MI

Change the Weather History Date:

Monday, August 19, 2013

  Actual Average Record
Temperature  
Mean Temperature 69 °F 69 °F  
Max Temperature 84 °F 80 °F 96 °F (1934)
Min Temperature 53 °F 58 °F 41 °F (1998)
Degree Days  
Heating Degree Days 0 1  
Month to date heating degree days 13 18  
Since 1 June heating degree days 63 99  
Since 1 July heating degree days 22 33  
Cooling Degree Days 4 5  
Month to date cooling degree days 53 100  
Year to date cooling degree days 555 431  
Since 1 June cooling degree days 476 399  
Growing Degree Days 18 (Base 50)    
Moisture  
Dew Point 55 °F    
Average Humidity 65    
Maximum Humidity 93    
Minimum Humidity 37    
Precipitation  
Precipitation 0.00 in 0.10 in 2.23 in (1961)
Month to date precipitation 1.33 1.97  
Year to date precipitation 24.34 19.35  
Snow  
Snow 0.00 in 0.00 in 0.00 in ()
Month to date snowfall 0.0 0.0  
Since 1 June snowfall 0.0 0.0  
Since 1 July snowfall 0.0 0.0  
Snow Depth 0.00 in    
Sea Level Pressure  
Sea Level Pressure 30.10 in    
Wind  
Wind Speed 4 mph (WSW)    
Max Wind Speed 13 mph    
Max Gust Speed 17 mph    
Visibility 8 miles    
Events      
T = Trace of Precipitation, MM = Missing Value Source: NWS Daily Summary

Daily Weather History Graph

Daily Weather History Graph

Search for Another Location

Airport:

Trip Planner

Search our weather history database for the weather conditions in past years. The results will help you decide how hot, cold, wet, or windy it might be!

Date:

Astronomy

Aug. 19, 2013 Rise Set
Actual Time 6:45 AM EDT 8:30 PM EDT
Civil Twilight 6:15 AM EDT 9:00 PM EDT
Nautical Twilight 5:38 AM EDT 9:37 PM EDT
Astronomical Twilight 4:58 AM EDT 10:16 PM EDT
Moon 7:21 PM EDT (8/19) 5:02 AM EDT (8/19)
Length of Visible Light 14h 45m
Length of Day
13h 45m
Waxing Gibbous, 97% of the Moon is Illuminated
Aug 19
Waxing Gibbous
Aug 20
Full
Aug 28
Last Quarter
Sep 5
New
Sep 12
First Quarter

Hourly Weather History & Observations

Time (EDT) Temp. Heat Index Dew Point Humidity Pressure Visibility Wind Dir Wind Speed Gust Speed Precip Events Conditions
12:53 AM 59.0 °F - 55.0 °F 87% 30.13 in 8.0 mi Calm Calm - N/A   Clear
1:53 AM 55.9 °F - 53.1 °F 90% 30.12 in 4.0 mi Calm Calm - N/A   Clear
2:51 AM 53.6 °F - 51.8 °F 94% 30.13 in 2.5 mi Calm Calm - N/A   Clear
2:53 AM 55.0 °F - 53.1 °F 93% 30.12 in 3.0 mi Calm Calm - N/A   Clear
3:53 AM 59.0 °F - 55.9 °F 90% 30.12 in 6.0 mi Calm Calm - N/A   Scattered Clouds
4:53 AM 54.0 °F - 51.1 °F 90% 30.12 in 3.0 mi Calm Calm - N/A   Clear
5:11 AM 55.4 °F - 51.8 °F 88% 30.12 in 2.0 mi Calm Calm - N/A   Clear
5:21 AM 57.2 °F - 53.6 °F 88% 30.12 in 4.0 mi Calm Calm - N/A   Clear
5:53 AM 55.0 °F - 53.1 °F 93% 30.12 in 1.2 mi Calm Calm - N/A   Clear
5:56 AM 53.6 °F - 51.8 °F 94% 30.12 in 10.0 mi Calm Calm - N/A   Clear
6:53 AM 54.0 °F - 52.0 °F 93% 30.13 in 10.0 mi Calm Calm - N/A   Clear
7:53 AM 59.0 °F - 55.0 °F 87% 30.13 in 10.0 mi Calm Calm - N/A   Clear
8:53 AM 66.9 °F - 59.0 °F 76% 30.13 in 9.0 mi SSW 3.5 mph - N/A   Clear
9:53 AM 71.1 °F - 59.0 °F 66% 30.12 in 10.0 mi WSW 4.6 mph - N/A   Clear
10:53 AM 75.0 °F - 61.0 °F 62% 30.11 in 10.0 mi SSW 4.6 mph - N/A   Clear
11:53 AM 79.0 °F - 59.0 °F 50% 30.11 in 10.0 mi WSW 9.2 mph - N/A   Clear
12:53 PM 80.1 °F 80.7 °F 59.0 °F 48% 30.11 in 10.0 mi WNW 6.9 mph - N/A   Partly Cloudy
1:53 PM 82.0 °F 81.7 °F 57.0 °F 42% 30.10 in 10.0 mi NW 6.9 mph - N/A   Clear
2:53 PM 82.9 °F 81.8 °F 53.1 °F 36% 30.08 in 10.0 mi WNW 9.2 mph - N/A   Clear
3:53 PM 82.9 °F 81.8 °F 53.1 °F 36% 30.07 in 10.0 mi WSW 5.8 mph - N/A   Clear
4:53 PM 82.9 °F 82.0 °F 55.0 °F 38% 30.06 in 10.0 mi SW 12.7 mph 17.3 mph N/A   Clear
5:53 PM 82.9 °F 82.0 °F 55.0 °F 38% 30.05 in 10.0 mi West 10.4 mph - N/A   Clear
6:53 PM 81.0 °F 80.8 °F 55.9 °F 42% 30.05 in 10.0 mi WSW 8.1 mph - N/A   Clear
7:53 PM 77.0 °F - 57.0 °F 50% 30.04 in 10.0 mi WSW 4.6 mph - N/A   Clear
8:53 PM 75.0 °F - 57.9 °F 55% 30.05 in 10.0 mi SW 3.5 mph - N/A   Clear
9:53 PM 66.0 °F - 57.9 °F 75% 30.06 in 10.0 mi Calm Calm - N/A   Clear
10:53 PM 63.0 °F - 57.0 °F 81% 30.07 in 10.0 mi Calm Calm - N/A   Clear
11:53 PM 63.0 °F - 57.0 °F 81% 30.07 in 10.0 mi Calm Calm - N/A   Clear